When you browse on this site, cookies collect data to enhance your experience and personalize the content and advertising you see.
Visit our Privacy Policy to learn more. By continuing to use the site, you agree to this use of cookies and data.
  • In Lithuania
  • List of Countries
  • For 7 days
  • Water Temperature
  • Satellite Maps
  • Weather Map
  • Weather Widgets
  • user-avatar
    Login

    Hourly Weather Cambridge

    Today, 19 April, Friday

    Time Temperature Precipitation Wind Pressure Humidity
    00:00 +9°C° 0 mm 2 mps 769 mmHg 83%
    01:00 +9°C° 0 mm 2 mps 769 mmHg 85%
    02:00 +8°C° 0 mm 3 mps 769 mmHg 87%
    03:00 +8°C° 0 mm 3 mps 769 mmHg 89%
    04:00 +8°C° 0 mm 3 mps 769 mmHg 88%
    05:00 +9°C° 0 mm 3 mps 769 mmHg 87%
    06:00 +9°C° 0 mm 2 mps 770 mmHg 84%
    07:00 +11°C° 0 mm 3 mps 770 mmHg 79%
    08:00 +13°C° 0 mm 3 mps 770 mmHg 73%
    09:00 +16°C° 0 mm 3 mps 770 mmHg 68%
    10:00 +18°C° 0 mm 4 mps 770 mmHg 63%
    11:00 +20°C° 0 mm 4 mps 770 mmHg 58%
    12:00 +22°C° 0 mm 4 mps 771 mmHg 52%
    13:00 +22°C° 0 mm 4 mps 771 mmHg 51%
    14:00 +22°C° 0 mm 3 mps 770 mmHg 50%
    15:00 +22°C° 0 mm 3 mps 770 mmHg 49%
    16:00 +21°C° 0 mm 3 mps 770 mmHg 56%
    17:00 +19°C° 0 mm 3 mps 771 mmHg 64%
    18:00 +18°C° 0 mm 2 mps 771 mmHg 71%
    19:00 +16°C° 0 mm 2 mps 771 mmHg 77%
    20:00 +14°C° 0 mm 2 mps 771 mmHg 83%
    21:00 +12°C° 0 mm 2 mps 772 mmHg 88%
    22:00 +10°C° 0 mm 2 mps 772 mmHg 88%
    23:00 +9°C° 0 mm 2 mps 772 mmHg 87%

    Tomorrow, 20 April, Saturday

    Time Temperature Precipitation Wind Pressure Humidity
    00:00 +9°C° 0 mm 2 mps 772 mmHg 87%
    01:00 +9°C° 0 mm 2 mps 772 mmHg 88%
    02:00 +8°C° 0 mm 2 mps 772 mmHg 90%
    03:00 +8°C° 0 mm 2 mps 772 mmHg 91%
    04:00 +8°C° 0 mm 2 mps 772 mmHg 91%
    05:00 +9°C° 0 mm 3 mps 772 mmHg 91%
    06:00 +9°C° 0 mm 3 mps 772 mmHg 91%
    07:00 +11°C° 0 mm 3 mps 772 mmHg 84%
    08:00 +14°C° 0 mm 3 mps 772 mmHg 76%
    09:00 +18°C° 0 mm 3 mps 772 mmHg 69%
    10:00 +19°C° 0 mm 3 mps 772 mmHg 63%
    11:00 +21°C° 0 mm 3 mps 772 mmHg 57%
    12:00 +22°C° 0 mm 3 mps 771 mmHg 51%
    13:00 +22°C° 0 mm 3 mps 771 mmHg 51%
    14:00 +22°C° 0 mm 3 mps 771 mmHg 50%
    15:00 +22°C° 0 mm 3 mps 770 mmHg 49%
    16:00 +21°C° 0 mm 3 mps 770 mmHg 56%
    17:00 +20°C° 0 mm 3 mps 770 mmHg 62%
    18:00 +18°C° 0 mm 3 mps 770 mmHg 69%
    19:00 +16°C° 0 mm 3 mps 770 mmHg 74%
    20:00 +13°C° 0 mm 3 mps 770 mmHg 79%
    21:00 +12°C° 0 mm 2 mps 770 mmHg 84%
    22:00 +10°C° 0 mm 2 mps 770 mmHg 84%
    23:00 +9°C° 0 mm 2 mps 769 mmHg 84%

    Day after tomorrow, 21 April, Sunday

    Time Temperature Precipitation Wind Pressure Humidity
    00:00 +9°C° 0 mm 2 mps 769 mmHg 85%
    01:00 +8°C° 0 mm 2 mps 769 mmHg 86%
    02:00 +9°C° 0 mm 1 mps 768 mmHg 88%
    03:00 +9°C° 0 mm 1 mps 768 mmHg 89%
    04:00 +9°C° 0 mm 1 mps 767 mmHg 88%
    05:00 +10°C° 0 mm 1 mps 767 mmHg 87%
    06:00 +10°C° 0 mm 1 mps 767 mmHg 86%
    07:00 +13°C° 0 mm 1 mps 766 mmHg 78%
    08:00 +15°C° 0 mm 2 mps 766 mmHg 70%
    09:00 +18°C° 0 mm 2 mps 766 mmHg 61%
    10:00 +19°C° 0 mm 2 mps 765 mmHg 56%
    11:00 +20°C° 0 mm 3 mps 765 mmHg 51%
    12:00 +21°C° 0 mm 3 mps 764 mmHg 46%
    13:00 +21°C° 0 mm 3 mps 764 mmHg 47%
    14:00 +21°C° 0 mm 3 mps 763 mmHg 48%
    15:00 +21°C° 0 mm 3 mps 762 mmHg 49%
    16:00 +20°C° 0 mm 3 mps 762 mmHg 57%
    17:00 +18°C° 0 mm 3 mps 761 mmHg 65%
    18:00 +17°C° 0 mm 3 mps 761 mmHg 73%
    19:00 +14°C° 0 mm 3 mps 761 mmHg 78%
    20:00 +12°C° 0 mm 3 mps 761 mmHg 82%
    21:00 +10°C° 0 mm 3 mps 761 mmHg 87%
    22:00 +9°C° 0 mm 3 mps 760 mmHg 86%
    23:00 +9°C° 0 mm 2 mps 760 mmHg 86%

    22 April, Monday

    Time Temperature Precipitation Wind Pressure Humidity
    00:00 +9°C° 0 mm 2 mps 759 mmHg 85%
    01:00 +9°C° 0 mm 2 mps 759 mmHg 83%
    02:00 +9°C° 0 mm 2 mps 758 mmHg 80%
    03:00 +9°C° 0 mm 2 mps 757 mmHg 78%
    04:00 +9°C° 0 mm 3 mps 757 mmHg 78%
    05:00 +9°C° 0 mm 3 mps 757 mmHg 78%
    06:00 +10°C° 0 mm 3 mps 756 mmHg 78%
    07:00 +12°C° 0 mm 3 mps 756 mmHg 71%
    08:00 +14°C° 0 mm 4 mps 755 mmHg 64%
    09:00 +17°C° 0 mm 5 mps 755 mmHg 57%
    10:00 +19°C° 0 mm 5 mps 754 mmHg 55%
    11:00 +20°C° 0 mm 5 mps 754 mmHg 53%
    12:00 +21°C° 0 mm 5 mps 753 mmHg 51%
    13:00 +20°C° 0 mm 5 mps 753 mmHg 52%
    14:00 +20°C° 0 mm 5 mps 752 mmHg 52%
    15:00 +20°C° 0 mm 5 mps 751 mmHg 53%
    16:00 +19°C° 0 mm 5 mps 751 mmHg 59%
    17:00 +18°C° 0 mm 4 mps 751 mmHg 65%
    18:00 +17°C° 0 mm 3 mps 750 mmHg 71%
    19:00 +14°C° 0 mm 4 mps 750 mmHg 73%
    20:00 +13°C° 0 mm 4 mps 750 mmHg 75%
    21:00 +11°C° 0 mm 4 mps 750 mmHg 78%
    22:00 +12°C° 0 mm 4 mps 750 mmHg 75%
    23:00 +12°C° 0 mm 5 mps 749 mmHg 73%

    23 April, Tuesday

    Time Temperature Precipitation Wind Pressure Humidity
    00:00 +11°C° 0 mm 6 mps 749 mmHg 71%
    01:00 +12°C° 0 mm 5 mps 749 mmHg 73%
    02:00 +10°C° 0 mm 5 mps 748 mmHg 76%
    03:00 +9°C° 0 mm 5 mps 748 mmHg 78%
    04:00 +9°C° 0 mm 5 mps 748 mmHg 78%
    05:00 +9°C° 0 mm 5 mps 748 mmHg 78%
    06:00 +9°C° 0 mm 5 mps 748 mmHg 77%
    07:00 +10°C° 0 mm 5 mps 748 mmHg 74%
    08:00 +13°C° 0 mm 5 mps 748 mmHg 71%
    09:00 +14°C° 0 mm 5 mps 748 mmHg 68%
    10:00 +15°C° 0 mm 5 mps 748 mmHg 66%
    11:00 +16°C° 0 mm 5 mps 748 mmHg 64%
    12:00 +17°C° 0 mm 5 mps 747 mmHg 62%
    13:00 +19°C° 0 mm 5 mps 747 mmHg 62%
    14:00 +19°C° 0 mm 5 mps 747 mmHg 61%
    15:00 +19°C° 0 mm 5 mps 747 mmHg 61%
    16:00 +18°C° 0 mm 4 mps 747 mmHg 65%
    17:00 +17°C° 0 mm 4 mps 747 mmHg 70%
    18:00 +15°C° 0 mm 4 mps 747 mmHg 74%
    19:00 +13°C° 0 mm 4 mps 747 mmHg 80%
    20:00 +11°C° 0 mm 3 mps 747 mmHg 86%
    21:00 +9°C° 0 mm 3 mps 747 mmHg 92%
    22:00 +9°C° 0 mm 3 mps 747 mmHg 91%
    23:00 +9°C° 0 mm 3 mps 747 mmHg 90%

    24 April, Wednesday

    Time Temperature Precipitation Wind Pressure Humidity
    00:00 +9°C° 0 mm 3 mps 747 mmHg 89%
    01:00 +9°C° 0 mm 3 mps 746 mmHg 87%
    02:00 +10°C° 0 mm 3 mps 746 mmHg 85%
    03:00 +10°C° 0 mm 3 mps 746 mmHg 84%
    04:00 +11°C° 0 mm 4 mps 746 mmHg 84%
    05:00 +12°C° 0 mm 4 mps 746 mmHg 83%
    06:00 +13°C° 0 mm 4 mps 745 mmHg 83%
    07:00 +14°C° 0.2 mm 5 mps 745 mmHg 83%
    08:00 +15°C° 0.2 mm 6 mps 745 mmHg 83%
    09:00 +16°C° 0.2 mm 6 mps 746 mmHg 82%
    10:00 +16°C° 0.4 mm 6 mps 746 mmHg 82%
    11:00 +15°C° 0.4 mm 7 mps 746 mmHg 82%
    12:00 +15°C° 0.4 mm 7 mps 746 mmHg 82%
    13:00 +15°C° 0 mm 7 mps 747 mmHg 73%
    14:00 +16°C° 0 mm 7 mps 747 mmHg 64%
    15:00 +16°C° 0 mm 7 mps 747 mmHg 55%
    16:00 +15°C° 0 mm 6 mps 747 mmHg 59%
    17:00 +14°C° 0 mm 5 mps 747 mmHg 64%
    18:00 +13°C° 0 mm 4 mps 747 mmHg 69%
    19:00 +12°C° 0 mm 5 mps 747 mmHg 70%
    20:00 +12°C° 0 mm 5 mps 748 mmHg 71%
    21:00 +10°C° 0 mm 5 mps 748 mmHg 73%
    22:00 +9°C° 0 mm 6 mps 748 mmHg 76%
    23:00 +9°C° 0 mm 6 mps 748 mmHg 79%
    Show more